Terminal Aerodrome Forecast
Issued by NWS

Home | Current Version | Previous Version | Text Only | Print | Product List | Glossary On
Versions: 1 2 3 4 5 6 7 8 9 10 11 12 13 14 15 16 17 18 19 20 21 22 23 24 25 26 27 28 29 30 31 32 33 34 35 36 37 38 39 40 41 42 43 44 45 46 47 48 49 50
553
FTUS43 KDMX 081737
TAFFOD
TAF
KFOD 081737Z 0818/0918 33017G28KT 5SM -SHSN BLSN OVC015
      TEMPO 0818/0822 2SM -SN BLSN
     FM082200 33016G27KT 6SM BLSN OVC015
     FM090300 33013G18KT P6SM OVC018
     FM091200 33010G18KT P6SM SCT015=

USA.gov is the U.S. government's official web portal to all federal, state and local government web resources and services.